Regional Weather Roundup
Issued by NWS

Home | Current Version | Previous Version | Text Only | Print | Product List | Glossary On
Versions: 1 2 3 4 5 6 7 8 9 10 11 12 13 14 15 16 17 18 19 20 21 22 23 24 25 26 27 28 29 30 31 32 33 34 35 36 37 38 39 40 41 42 43 44 45 46 47 48 49 50
000
ASUS42 KTBW 251116
RWRFL
FLORIDA REGIONAL WEATHER ROUNDUP
NATIONAL WEATHER SERVICE TAMPA BAY RUSKIN FL
600 AM EST SAT FEB 25 2017

NOTE: "FAIR" INDICATES FEW OR NO CLOUDS BELOW 12,000 FEET WITH NO
SIGNIFICANT WEATHER AND/OR OBSTRUCTIONS TO VISIBILITY.

FLZ001>010-012>015-112-114-115-251200-
PANHANDLE FLORIDA

CITY           SKY/WX    TMP DP  RH WIND       PRES   REMARKS
PENSACOLA      MOCLDY    67  63  87 W9        29.86R
PENSACOLA NAS  CLEAR     66  64  93 W5        29.86R
CRESTVIEW      PTCLDY    66  63  90 W7        29.86R
DUKE FIELD     FAIR      65  64  99 W8        29.85R
VALPARAISO     PTCLDY    65  64  96 W10       29.85R
MARY ESTHER    CLEAR     66  59  77 NW9       29.84R
TRI COUNTY     CLOUDY    66  65  96 SW3       29.85R
PANAMA CITY    CLOUDY    61  60  97 CALM      29.85R FOG
TYNDALL AFB    MOCLDY    66  66 100 CALM      29.86R FOG
APALACHICOLA   FOG       62  62 100 CALM      29.85R VSB 1/2

STATION/POSITION SKY/WX   TEMP    WIND        PRES    WAVE   SWELL
                          AIR SEA DIR/SP/G            HT/PER HT/PER
                          (F)     (DEG/KT/KT) (MB)    (FT/S) (FT/S)
30.1N   87.6W              69 69  280/ 14/ 17 1011.1R   2/ 3
28.8N   86.0W              71 71              1011.6R   1/ 3
PANAMA CITY BEAC           68     260/ 13/ 15 1010.9R
TOWER C                    67     270/ 10/ 10 1011.9R
28.5N   84.5W              70 70  270/  8/ 10 1011.6R   1

$$
FLZ011-016>038-118-127-128-134-139-239-251200-
NORTH FLORIDA

CITY           SKY/WX    TMP DP  RH WIND       PRES   REMARKS
MARIANNA       CLOUDY    65  64  97 W6        29.84R
TALLAHASSEE    MOCLDY    63  63 100 CALM      29.86R
PERRY          CLOUDY    65  63  93 W6        29.88R
CROSS CITY     CLOUDY    64  64 100 W5        29.88R FOG
LAKE CITY      CLOUDY    61  61 100 W3        29.87R
GAINESVILLE    CLOUDY    63  62  97 W9        29.86R FOG
WILLISTON      CLOUDY    66  66 100 SW9       29.87R FOG
PALATKA        FOG       55  55 100 W5        29.85R VSB 1/4
MAYPORT NAS    CLOUDY    64  62  93 W5        29.84R FOG
JACKSONVILLE   FOG       61  61 100 W6        29.84R VSB 1/2
JAX NAS        MOCLDY    63  62  97 SW6       29.85R FOG
FERNANDINA BEA CLOUDY    66  64  94 W7        29.83R
ST AUGUSTINE   CLOUDY    63  62  97 SW6       29.85R

STATION/POSITION SKY/WX   TEMP    WIND        PRES    WAVE   SWELL
                          AIR SEA DIR/SP/G            HT/PER HT/PER
                          (F)     (DEG/KT/KT) (MB)    (FT/S) (FT/S)
SHELL POINT      NOT AVBL
KEATON BEACH               67     260/  8/  9 1011.3R
CEDAR KEY                  63     220/  5/  6 1010.9R
FERNANDINA                 63 68  250/  6/  8 1011.1R
30.7N   81.3W                 64                N/A     5/10   2/11
MAYPORT                    64 67  240/  6/  7 1010.4R
31.4N   80.9W              62 62  240/  8/ 10 1009.6R   5/11   5/11
ST AUGUSTINE               62 67  230/  4/  6 1011.0R

$$
FLZ040-043>046-052-053-057-058-063-144-251200-
INTERIOR CENTRAL FLORIDA

CITY           SKY/WX    TMP DP  RH WIND       PRES   REMARKS
OCALA          CLOUDY    64  61  88 SW8       29.86R
THE VILLAGES   FOG       63  63 100 CALM      29.76R VSB 0
LEESBURG       CLEAR     63  61  93 SW3       29.86R
SANFORD        CLEAR     62  61  96 SW3       29.85R
ORLANDO EXEC   CLEAR     64  62  93 SW3       29.86R
ORLANDO INTL   CLEAR     60  59  96 S3        29.86R
KISSIMMEE      CLEAR     61  60  97 CALM      29.87R
WINTER HAVEN   FOG       62  61  96 CALM      29.87R VSB 1/4
LAKELAND       FOG       63  63 100 CALM      29.87R VSB 1/2
BARTOW         FOG       57 N/A N/A CALM      29.87R VSB 1/4
OKEECHOBEE     FOG       55  55 100 CALM      29.87S VSB 1/2

$$
FLZ041-047-054-059-064-141-147-251200-
EAST CENTRAL FLORIDA

CITY           SKY/WX    TMP DP  RH WIND       PRES   REMARKS
DAYTONA BEACH  FOG       61  61 100 SW5       29.85R VSB 1/4
DELAND         FOG       63  63 100 S3        29.84S VSB 1/4
JFK SPACE CTR  CLOUDY    64  64 100 W3        29.84R FOG
CAPE CANAVERAL FOG       65  63  94 CALM      29.84R VSB 1/2
PATRICK AFB    FOG       64  64 100 SW6       29.85R VSB 1
MELBOURNE      FOG       63  63 100 W3        29.85S VSB 1/2
VERO BEACH     FOG       61  61 100 W3        29.86R VSB 1/4
FT PIERCE      FOG       59  59 100 CALM      29.86R VSB 1/4
STUART         FOG       66  64  94 CALM      29.87S VSB 1/4

STATION/POSITION SKY/WX   TEMP    WIND        PRES    WAVE   SWELL
                          AIR SEA DIR/SP/G            HT/PER HT/PER
                          (F)     (DEG/KT/KT) (MB)    (FT/S) (FT/S)
TRIDENT PIER               65 71  220/  4/  4 1011.8R
28.4N   80.5W                 71                N/A     3/11   2/11
27.5N   80.2W                 72                N/A     4/10   2/13

$$
FLZ050-056-061-142-242-148-248-149-249-151-251-155-255-
160-260-251200-
WEST CENTRAL FLORIDA

CITY           SKY/WX    TMP DP  RH WIND       PRES   REMARKS
CRYSTAL RIVER  CLOUDY    64  64 100 CALM      29.87R
INVERNESS      CLOUDY    64  64 100 CALM      29.87R FOG
BROOKSVILLE    FOG       64  64 100 S5        29.87R VSB 1/2
CLEARWATER AIR CLOUDY    64  64 100 CALM      29.86R
ST PETE CLEARW CLOUDY    66  64  93 S6        29.86R
TAMPA INTL     CLOUDY    67  65  93 SW6       29.87R
TAMPA EXEC     CLOUDY    68  64  88 CALM      29.88R FOG
PLANT CITY     FOG       66  66 100 W5        29.89R VSB 1/4
MACDILL AFB    CLOUDY    66  66 100 SW3       29.87R
PETER O KNIGHT CLOUDY    68  68 100 SW5       29.87R
ST PETERSBURG  CLOUDY    66  65  96 W5        29.85R
SARASOTA       CLOUDY    64  62  93 SE3       29.85R
VENICE         FAIR      63  63 100 CALM      29.86F FOG

STATION/POSITION SKY/WX   TEMP    WIND        PRES    WAVE   SWELL
                          AIR SEA DIR/SP/G            HT/PER HT/PER
                          (F)     (DEG/KT/KT) (MB)    (FT/S) (FT/S)
27.3N   84.2W                 71                N/A     1/ 6
CLEARWATER BEACH           65     170/  6/  7 1011.2R
MIDDLE TAMPA BAY           65     200/  5/  6 1011.4R
VENICE                     66 70  150/  2/  2 1010.7S

$$
FLZ066-069-070-075>078-162-262-165-265-251200-
SOUTHWEST FLORIDA AND KEYS

CITY           SKY/WX    TMP DP  RH WIND       PRES   REMARKS
PUNTA GORDA    FOG       58  58 100 CALM      29.89R VSB 1/2
FT MYERS       CLOUDY    67  66  97 CALM      29.87R
SOUTHWEST INTL FOG       65  64  97 NW3       29.88R VSB 1
NAPLES         CLOUDY    66  66 100 N3        29.87R
MARCO ISLAND   CLEAR     64  63  94 CALM      29.87R
MARATHON       PTCLDY    69  67  93 CALM      29.88R
KEY WEST NAS   PTCLDY    68  65  90 CALM      29.89R
KEY WEST INTL  MOCLDY    70  66  87 CALM      29.89R

STATION/POSITION SKY/WX   TEMP    WIND        PRES    WAVE   SWELL
                          AIR SEA DIR/SP/G            HT/PER HT/PER
                          (F)     (DEG/KT/KT) (MB)    (FT/S) (FT/S)
NAPLES                        73              1011.3R
26.0N   85.6W              73 75  150/  8/ 10 1011.2R   1/ 4
DRY TORTUGAS               71     100/  4/  5 1011.9R
SAND KEY                   71      20/  4/  6 1012.6R
LONG KEY                   71 74   10/  3/  3 1011.6R

$$
FLZ067-068-071>074-168-172>174-251200-
SOUTHEAST FLORIDA

CITY           SKY/WX    TMP DP  RH WIND       PRES   REMARKS
W PALM BEACH   PTCLDY    62  62 100 SW3       29.86S
FT LAUDER-EXEC FOG       67  64  90 W5        29.86R VSB 1/2
FT LAUDERDALE  FOG       67  67 100 W5        29.86S VSB 1/2
POMPANO BEACH  CLEAR     67  65  93 CALM      29.86R
PEMBROKE PINES FOG       67  66  97 W5        29.88R VSB 1/2
OPA LOCKA      FOG       66  66 100 W3        29.88R VSB 1/2
MIAMI          FOG       66  65  96 W3        29.87S VSB 1/16
WEST KENDALL   FOG       67  65  93 NW3       29.87R VSB 3/4
HOMESTEAD      FOG       66  66 100 W5        29.87R VSB 1

STATION/POSITION SKY/WX   TEMP    WIND        PRES    WAVE   SWELL
                          AIR SEA DIR/SP/G            HT/PER HT/PER
                          (F)     (DEG/KT/KT) (MB)    (FT/S) (FT/S)
PORT EVERGLADES            68     260/  5/  8 1010.9R
VIRGINIA KEY               67     280/  6/  8 1011.8R
LAKE WORTH                        270/  4/  5   N/A
FOWEY ROCKS                67 74  290/  8/  9 1012.2R
SETTLEMENT POINT           71     130/  3/  3 1011.5R

$$




USA.gov is the U.S. government's official web portal to all federal, state and local government web resources and services.